000000,16.7968, 26 Oct 2015, 00:00:33
000030,16.7851, 26 Oct 2015, 00:01:04
000100,16.765, 26 Oct 2015, 00:01:34
000130,16.746, 26 Oct 2015, 00:02:04
000200,16.7302, 26 Oct 2015, 00:02:34
000230,16.7215, 26 Oct 2015, 00:03:03
000300,16.7116, 26 Oct 2015, 00:03:34
000330,16.7034, 26 Oct 2015, 00:04:04
000400,16.6984, 26 Oct 2015, 00:04:34
000430,16.6965, 26 Oct 2015, 00:05:03
000500,16.6943, 26 Oct 2015, 00:05:34
000530,16.6863, 26 Oct 2015, 00:06:05
000630,16.6651, 26 Oct 2015, 00:07:04
000700,16.6492, 26 Oct 2015, 00:07:34
000730,16.6384, 26 Oct 2015, 00:08:05
000800,16.6281, 26 Oct 2015, 00:08:35
000830,16.6155, 26 Oct 2015, 00:09:04
000900,16.6002, 26 Oct 2015, 00:09:34
000930,16.5833, 26 Oct 2015, 00:10:05
001000,16.5683, 26 Oct 2015, 00:10:35
001030,16.556, 26 Oct 2015, 00:11:05
001100,16.543, 26 Oct 2015, 00:11:34
001130,16.5323, 26 Oct 2015, 00:12:04
001200,16.5303, 26 Oct 2015, 00:12:35
001230,16.5362, 26 Oct 2015, 00:13:05
001300,16.5474, 26 Oct 2015, 00:13:34
001330,16.5622, 26 Oct 2015, 00:14:04
001400,16.5795, 26 Oct 2015, 00:14:35
001430,16.5965, 26 Oct 2015, 00:15:05
001500,16.613, 26 Oct 2015, 00:15:34
001530,16.6272, 26 Oct 2015, 00:16:04
001600,16.6409, 26 Oct 2015, 00:16:35
001630,16.6527, 26 Oct 2015, 00:17:05
001700,16.6643, 26 Oct 2015, 00:17:34
001730,16.6787, 26 Oct 2015, 00:18:04
001800,16.6946, 26 Oct 2015, 00:18:34
001830,16.7083, 26 Oct 2015, 00:19:05
001900,16.7202, 26 Oct 2015, 00:19:34
001930,16.7304, 26 Oct 2015, 00:20:04
002000,16.739, 26 Oct 2015, 00:20:34
002030,16.7468, 26 Oct 2015, 00:21:05
002100,16.7531, 26 Oct 2015, 00:21:34
002130,16.7611, 26 Oct 2015, 00:22:04
002200,16.7694, 26 Oct 2015, 00:22:34
002230,16.7762, 26 Oct 2015, 00:23:05
002330,16.7882, 26 Oct 2015, 00:24:04
002400,16.7965, 26 Oct 2015, 00:24:34
002430,16.8052, 26 Oct 2015, 00:25:04
002500,16.8142, 26 Oct 2015, 00:25:35
002530,16.8213, 26 Oct 2015, 00:26:04
002600,16.8233, 26 Oct 2015, 00:26:34
002630,16.8224, 26 Oct 2015, 00:27:04
002700,16.8201, 26 Oct 2015, 00:27:34
002730,16.8176, 26 Oct 2015, 00:28:04
002800,16.8149, 26 Oct 2015, 00:28:34
002830,16.8116, 26 Oct 2015, 00:29:04
002900,16.8092, 26 Oct 2015, 00:29:34
002930,16.8071, 26 Oct 2015, 00:30:04
003000,16.8045, 26 Oct 2015, 00:30:34
003030,16.8022, 26 Oct 2015, 00:31:04
003100,16.8002, 26 Oct 2015, 00:31:34
003130,16.7985, 26 Oct 2015, 00:32:04
003200,16.7978, 26 Oct 2015, 00:32:34
003230,16.7987, 26 Oct 2015, 00:33:04
003330,16.8088, 26 Oct 2015, 00:34:04
003400,16.8182, 26 Oct 2015, 00:34:34
003430,16.831, 26 Oct 2015, 00:35:04
003500,16.8475, 26 Oct 2015, 00:35:35
003530,16.8642, 26 Oct 2015, 00:36:04
003600,16.8799, 26 Oct 2015, 00:36:34
003630,16.8931, 26 Oct 2015, 00:37:04
003700,16.9019, 26 Oct 2015, 00:37:33
003730,16.9087, 26 Oct 2015, 00:38:04
003800,16.9104, 26 Oct 2015, 00:38:34
003830,16.9109, 26 Oct 2015, 00:39:04
003900,16.9072, 26 Oct 2015, 00:39:33
003930,16.9041, 26 Oct 2015, 00:40:04
004000,16.9018, 26 Oct 2015, 00:40:34
004030,16.8991, 26 Oct 2015, 00:41:04
004100,16.8945, 26 Oct 2015, 00:41:33
004130,16.8842, 26 Oct 2015, 00:42:04
004200,16.8784, 26 Oct 2015, 00:42:34
004230,16.8783, 26 Oct 2015, 00:43:04
004300,16.8752, 26 Oct 2015, 00:43:33
004330,16.8745, 26 Oct 2015, 00:44:04
004400,16.8775, 26 Oct 2015, 00:44:34
004430,16.8809, 26 Oct 2015, 00:45:04
004530,16.8701, 26 Oct 2015, 00:46:05
004600,16.8578, 26 Oct 2015, 00:46:35
004700,16.8396, 26 Oct 2015, 00:47:34
004730,16.8325, 26 Oct 2015, 00:48:05
004800,16.8202, 26 Oct 2015, 00:48:35
004830,16.806, 26 Oct 2015, 00:49:05
004900,16.7955, 26 Oct 2015, 00:49:34
004930,16.7851, 26 Oct 2015, 00:50:04
005000,16.7729, 26 Oct 2015, 00:50:35
005030,16.7604, 26 Oct 2015, 00:51:05
005100,16.7439, 26 Oct 2015, 00:51:34
005130,16.7102, 26 Oct 2015, 00:52:04
005200,16.6635, 26 Oct 2015, 00:52:35
005230,16.6111, 26 Oct 2015, 00:53:05
005300,16.5667, 26 Oct 2015, 00:53:34
005330,16.5332, 26 Oct 2015, 00:54:04
005400,16.5119, 26 Oct 2015, 00:54:35
005430,16.5008, 26 Oct 2015, 00:55:05
005500,16.4937, 26 Oct 2015, 00:55:34
005530,16.4951, 26 Oct 2015, 00:56:04
005600,16.4929, 26 Oct 2015, 00:56:35
005700,16.4848, 26 Oct 2015, 00:57:34
005730,16.4754, 26 Oct 2015, 00:58:04
005800,16.4677, 26 Oct 2015, 00:58:35
005830,16.4602, 26 Oct 2015, 00:59:05
005900,16.4582, 26 Oct 2015, 00:59:34
005930,16.4561, 26 Oct 2015, 01:00:04
010000,16.4545, 26 Oct 2015, 01:00:34
010030,16.4447, 26 Oct 2015, 01:01:05
010100,16.4148, 26 Oct 2015, 01:01:34
010130,16.3375, 26 Oct 2015, 01:02:04
010200,16.2526, 26 Oct 2015, 01:02:34
010230,16.1802, 26 Oct 2015, 01:03:04
010300,16.1219, 26 Oct 2015, 01:03:35
010330,16.0797, 26 Oct 2015, 01:04:04
010400,16.0513, 26 Oct 2015, 01:04:34
010430,16.0325, 26 Oct 2015, 01:05:04
010500,16.0167, 26 Oct 2015, 01:05:34
010530,16.0067, 26 Oct 2015, 01:06:04
010600,16.0017, 26 Oct 2015, 01:06:34
010630,15.9999, 26 Oct 2015, 01:07:04
010700,15.9991, 26 Oct 2015, 01:07:34
010730,15.995, 26 Oct 2015, 01:08:04
010830,15.9768, 26 Oct 2015, 01:09:04
010900,15.9606, 26 Oct 2015, 01:09:34
010930,15.9483, 26 Oct 2015, 01:10:04
011000,15.9348, 26 Oct 2015, 01:10:34
011030,15.9241, 26 Oct 2015, 01:11:04
011100,15.9201, 26 Oct 2015, 01:11:34
011130,15.9261, 26 Oct 2015, 01:12:04
011200,15.9406, 26 Oct 2015, 01:12:34
011230,15.9638, 26 Oct 2015, 01:13:04
011300,15.991, 26 Oct 2015, 01:13:34
011330,16.0191, 26 Oct 2015, 01:14:04
011400,16.0428, 26 Oct 2015, 01:14:34
011430,16.0578, 26 Oct 2015, 01:15:04
011500,16.0638, 26 Oct 2015, 01:15:34
011530,16.0728, 26 Oct 2015, 01:16:04
011600,16.0759, 26 Oct 2015, 01:16:34
011630,16.0763, 26 Oct 2015, 01:17:04
011700,16.0754, 26 Oct 2015, 01:17:33
011730,16.0734, 26 Oct 2015, 01:18:04
011800,16.0726, 26 Oct 2015, 01:18:34
011830,16.0753, 26 Oct 2015, 01:19:04
011930,16.0815, 26 Oct 2015, 01:20:03
012000,16.0827, 26 Oct 2015, 01:20:34
012030,16.0799, 26 Oct 2015, 01:21:04
012100,16.0818, 26 Oct 2015, 01:21:34
012130,16.0826, 26 Oct 2015, 01:22:03
012200,16.0797, 26 Oct 2015, 01:22:34
012230,16.0789, 26 Oct 2015, 01:23:04
012300,16.0815, 26 Oct 2015, 01:23:34
012330,16.0861, 26 Oct 2015, 01:24:04
012400,16.0931, 26 Oct 2015, 01:24:33
012430,16.1009, 26 Oct 2015, 01:25:04
012500,16.1173, 26 Oct 2015, 01:25:34
012600,16.1426, 26 Oct 2015, 01:26:34
012630,16.1451, 26 Oct 2015, 01:27:04
012700,16.1463, 26 Oct 2015, 01:27:35
012730,16.1516, 26 Oct 2015, 01:28:05
012800,16.165, 26 Oct 2015, 01:28:34
012830,16.1805, 26 Oct 2015, 01:29:04
012900,16.1857, 26 Oct 2015, 01:29:35
012930,16.1886, 26 Oct 2015, 01:30:05
013000,16.2043, 26 Oct 2015, 01:30:35
013030,16.2237, 26 Oct 2015, 01:31:04
013100,16.2418, 26 Oct 2015, 01:31:34
013130,16.257, 26 Oct 2015, 01:32:05
013200,16.2697, 26 Oct 2015, 01:32:35
013230,16.2787, 26 Oct 2015, 01:33:04
013300,16.2863, 26 Oct 2015, 01:33:34
013330,16.2938, 26 Oct 2015, 01:34:05
013400,16.2992, 26 Oct 2015, 01:34:35
013430,16.3036, 26 Oct 2015, 01:35:05
013500,16.3027, 26 Oct 2015, 01:35:34
013530,16.3014, 26 Oct 2015, 01:36:04
013600,16.3063, 26 Oct 2015, 01:36:35
013630,16.3157, 26 Oct 2015, 01:37:04
013700,16.3301, 26 Oct 2015, 01:37:34
013730,16.3483, 26 Oct 2015, 01:38:04
013800,16.3756, 26 Oct 2015, 01:38:35
013900,16.4362, 26 Oct 2015, 01:39:34
013930,16.4524, 26 Oct 2015, 01:40:04
014000,16.4656, 26 Oct 2015, 01:40:35
014030,16.4727, 26 Oct 2015, 01:41:05
014100,16.4767, 26 Oct 2015, 01:41:34
014130,16.4868, 26 Oct 2015, 01:42:04
014200,16.4965, 26 Oct 2015, 01:42:35
014230,16.5078, 26 Oct 2015, 01:43:05
014300,16.5134, 26 Oct 2015, 01:43:34
014330,16.5164, 26 Oct 2015, 01:44:04
014400,16.5156, 26 Oct 2015, 01:44:34
014430,16.5161, 26 Oct 2015, 01:45:05
014500,16.5202, 26 Oct 2015, 01:45:34
014530,16.5217, 26 Oct 2015, 01:46:04
014600,16.5197, 26 Oct 2015, 01:46:34
014630,16.5161, 26 Oct 2015, 01:47:04
014700,16.5129, 26 Oct 2015, 01:47:34
014730,16.5071, 26 Oct 2015, 01:48:04
014800,16.5025, 26 Oct 2015, 01:48:34
014900,16.4931, 26 Oct 2015, 01:49:34
014930,16.493, 26 Oct 2015, 01:50:04
015000,16.4951, 26 Oct 2015, 01:50:34
015030,16.4939, 26 Oct 2015, 01:51:05
015100,16.4887, 26 Oct 2015, 01:51:34
015130,16.4847, 26 Oct 2015, 01:52:04
015200,16.4808, 26 Oct 2015, 01:52:34
015230,16.4767, 26 Oct 2015, 01:53:04
015300,16.476, 26 Oct 2015, 01:53:34
015330,16.4775, 26 Oct 2015, 01:54:04
015400,16.4795, 26 Oct 2015, 01:54:34
015430,16.4816, 26 Oct 2015, 01:55:04
015500,16.4806, 26 Oct 2015, 01:55:34
015530,16.4775, 26 Oct 2015, 01:56:04
015600,16.4756, 26 Oct 2015, 01:56:34
015700,16.4831, 26 Oct 2015, 01:57:34
015730,16.4912, 26 Oct 2015, 01:58:04
015800,16.4957, 26 Oct 2015, 01:58:34
015830,16.5003, 26 Oct 2015, 01:59:04
015900,16.5031, 26 Oct 2015, 01:59:33
015930,16.5067, 26 Oct 2015, 02:00:04
020000,16.5091, 26 Oct 2015, 02:00:34
020030,16.5126, 26 Oct 2015, 02:01:04
020100,16.5171, 26 Oct 2015, 02:01:33
020130,16.5184, 26 Oct 2015, 02:02:04
020200,16.5179, 26 Oct 2015, 02:02:34
020230,16.5193, 26 Oct 2015, 02:03:04
020300,16.5179, 26 Oct 2015, 02:03:34
020330,16.511, 26 Oct 2015, 02:04:03
020400,16.4998, 26 Oct 2015, 02:04:34
020430,16.483, 26 Oct 2015, 02:05:04
020500,16.4654, 26 Oct 2015, 02:05:34
020530,16.4494, 26 Oct 2015, 02:06:04
020600,16.4362, 26 Oct 2015, 02:06:35
020630,16.4267, 26 Oct 2015, 02:07:05
020700,16.4225, 26 Oct 2015, 02:07:35
020730,16.4199, 26 Oct 2015, 02:08:04
020800,16.4163, 26 Oct 2015, 02:08:34
020830,16.4111, 26 Oct 2015, 02:09:05
020900,16.4055, 26 Oct 2015, 02:09:35
020930,16.4016, 26 Oct 2015, 02:10:04
021000,16.3986, 26 Oct 2015, 02:10:34
021030,16.3971, 26 Oct 2015, 02:11:05
021100,16.3969, 26 Oct 2015, 02:11:35
021130,16.3958, 26 Oct 2015, 02:12:05
021200,16.3934, 26 Oct 2015, 02:12:34
021230,16.3936, 26 Oct 2015, 02:13:04
021300,16.3942, 26 Oct 2015, 02:13:35
021330,16.3931, 26 Oct 2015, 02:14:05
021400,16.3922, 26 Oct 2015, 02:14:34
021430,16.387, 26 Oct 2015, 02:15:04
021500,16.3815, 26 Oct 2015, 02:15:35
021530,16.3783, 26 Oct 2015, 02:16:05
021600,16.371, 26 Oct 2015, 02:16:34
021630,16.3611, 26 Oct 2015, 02:17:04
021700,16.3504, 26 Oct 2015, 02:17:35
021730,16.3421, 26 Oct 2015, 02:18:05
021800,16.338, 26 Oct 2015, 02:18:34
021830,16.3309, 26 Oct 2015, 02:19:04
021900,16.3251, 26 Oct 2015, 02:19:34
021930,16.3244, 26 Oct 2015, 02:20:05
022030,16.3287, 26 Oct 2015, 02:21:04
022100,16.328, 26 Oct 2015, 02:21:34
022130,16.3298, 26 Oct 2015, 02:22:05
022200,16.3331, 26 Oct 2015, 02:22:35
022230,16.3406, 26 Oct 2015, 02:23:04
022300,16.3445, 26 Oct 2015, 02:23:34
022330,16.3423, 26 Oct 2015, 02:24:04
022400,16.3386, 26 Oct 2015, 02:24:35
022430,16.3369, 26 Oct 2015, 02:25:04
022500,16.345, 26 Oct 2015, 02:25:34
022530,16.3574, 26 Oct 2015, 02:26:04
022600,16.3687, 26 Oct 2015, 02:26:35
022630,16.3733, 26 Oct 2015, 02:27:04
022700,16.3697, 26 Oct 2015, 02:27:34
022730,16.3633, 26 Oct 2015, 02:28:04
022800,16.364, 26 Oct 2015, 02:28:35
022830,16.3677, 26 Oct 2015, 02:29:04
022900,16.3759, 26 Oct 2015, 02:29:34
022930,16.3932, 26 Oct 2015, 02:30:04
023000,16.4099, 26 Oct 2015, 02:30:34
023100,16.433, 26 Oct 2015, 02:31:34
023130,16.4351, 26 Oct 2015, 02:32:04
023200,16.4304, 26 Oct 2015, 02:32:34
023230,16.4206, 26 Oct 2015, 02:33:05
023300,16.4125, 26 Oct 2015, 02:33:34
023330,16.411, 26 Oct 2015, 02:34:04
023400,16.4155, 26 Oct 2015, 02:34:34
023430,16.425, 26 Oct 2015, 02:35:05
023500,16.4354, 26 Oct 2015, 02:35:34
023530,16.4454, 26 Oct 2015, 02:36:04
023600,16.4477, 26 Oct 2015, 02:36:34
023630,16.4509, 26 Oct 2015, 02:37:03
023700,16.4541, 26 Oct 2015, 02:37:34
023730,16.4575, 26 Oct 2015, 02:38:04
023800,16.4601, 26 Oct 2015, 02:38:34
023900,16.4494, 26 Oct 2015, 02:39:34
023930,16.4367, 26 Oct 2015, 02:40:04
024000,16.4191, 26 Oct 2015, 02:40:34
024030,16.3996, 26 Oct 2015, 02:41:04
024100,16.3841, 26 Oct 2015, 02:41:34
024130,16.3712, 26 Oct 2015, 02:42:04
024200,16.3596, 26 Oct 2015, 02:42:34
024230,16.3528, 26 Oct 2015, 02:43:04
024300,16.3531, 26 Oct 2015, 02:43:33
024330,16.3633, 26 Oct 2015, 02:44:04
024400,16.3753, 26 Oct 2015, 02:44:34
024430,16.3863, 26 Oct 2015, 02:45:04
024500,16.3928, 26 Oct 2015, 02:45:33
024530,16.3954, 26 Oct 2015, 02:46:05
024600,16.3959, 26 Oct 2015, 02:46:35
024700,16.4103, 26 Oct 2015, 02:47:34
024730,16.4517, 26 Oct 2015, 02:48:05
024800,16.4905, 26 Oct 2015, 02:48:35
024830,16.5362, 26 Oct 2015, 02:49:05
024900,16.6168, 26 Oct 2015, 02:49:34
024930,16.7201, 26 Oct 2015, 02:50:05
025000,16.8161, 26 Oct 2015, 02:50:35
025030,16.8972, 26 Oct 2015, 02:51:05
025100,16.9558, 26 Oct 2015, 02:51:34
025130,17.0048, 26 Oct 2015, 02:52:05
025200,17.0493, 26 Oct 2015, 02:52:35
025230,17.0882, 26 Oct 2015, 02:53:05
025330,17.1689, 26 Oct 2015, 02:54:04
025400,17.2089, 26 Oct 2015, 02:54:35
025430,17.244, 26 Oct 2015, 02:55:05
025500,17.2731, 26 Oct 2015, 02:55:35
025530,17.2944, 26 Oct 2015, 02:56:04
025600,17.3139, 26 Oct 2015, 02:56:35
025630,17.3308, 26 Oct 2015, 02:57:05
025700,17.3455, 26 Oct 2015, 02:57:34
025730,17.3606, 26 Oct 2015, 02:58:04
025800,17.3765, 26 Oct 2015, 02:58:34
025830,17.3924, 26 Oct 2015, 02:59:05
025930,17.4359, 26 Oct 2015, 03:00:04
030000,17.459, 26 Oct 2015, 03:00:34
030030,17.4785, 26 Oct 2015, 03:01:05
030100,17.4973, 26 Oct 2015, 03:01:35
030130,17.5123, 26 Oct 2015, 03:02:04
030200,17.5225, 26 Oct 2015, 03:02:34
030230,17.5303, 26 Oct 2015, 03:03:04
030300,17.5359, 26 Oct 2015, 03:03:35
030400,17.5433, 26 Oct 2015, 03:04:34
030430,17.5454, 26 Oct 2015, 03:05:04
030500,17.547, 26 Oct 2015, 03:05:35
030530,17.5491, 26 Oct 2015, 03:06:04
030600,17.552, 26 Oct 2015, 03:06:34
030630,17.556, 26 Oct 2015, 03:07:04
030700,17.5593, 26 Oct 2015, 03:07:34
030800,17.5673, 26 Oct 2015, 03:08:34
030830,17.573, 26 Oct 2015, 03:09:04
030900,17.5773, 26 Oct 2015, 03:09:34
030930,17.5823, 26 Oct 2015, 03:10:05
031000,17.5857, 26 Oct 2015, 03:10:34
031030,17.5868, 26 Oct 2015, 03:11:04
031100,17.5869, 26 Oct 2015, 03:11:34
031130,17.5848, 26 Oct 2015, 03:12:04
031200,17.582, 26 Oct 2015, 03:12:34
031230,17.579, 26 Oct 2015, 03:13:04
031300,17.5764, 26 Oct 2015, 03:13:34
031330,17.5732, 26 Oct 2015, 03:14:04
031430,17.5682, 26 Oct 2015, 03:15:04
031500,17.567, 26 Oct 2015, 03:15:34
031530,17.5652, 26 Oct 2015, 03:16:04
031600,17.565, 26 Oct 2015, 03:16:34
031630,17.5662, 26 Oct 2015, 03:17:04
031700,17.5679, 26 Oct 2015, 03:17:34
031730,17.569, 26 Oct 2015, 03:18:04
031800,17.5703, 26 Oct 2015, 03:18:33
031830,17.5696, 26 Oct 2015, 03:19:04
031900,17.5685, 26 Oct 2015, 03:19:34
031930,17.5672, 26 Oct 2015, 03:20:04
032030,17.5648, 26 Oct 2015, 03:21:04
032100,17.563, 26 Oct 2015, 03:21:34
032130,17.5616, 26 Oct 2015, 03:22:04
032200,17.5583, 26 Oct 2015, 03:22:34
032230,17.5548, 26 Oct 2015, 03:23:04
032300,17.552, 26 Oct 2015, 03:23:34
032330,17.5485, 26 Oct 2015, 03:24:04
032400,17.5464, 26 Oct 2015, 03:24:34
032430,17.5457, 26 Oct 2015, 03:25:04
032500,17.5444, 26 Oct 2015, 03:25:34
032530,17.5422, 26 Oct 2015, 03:26:04
032600,17.5398, 26 Oct 2015, 03:26:33
032630,17.5382, 26 Oct 2015, 03:27:03
032700,17.5369, 26 Oct 2015, 03:27:34
032730,17.5359, 26 Oct 2015, 03:28:04
032800,17.5354, 26 Oct 2015, 03:28:33
032830,17.535, 26 Oct 2015, 03:29:03
032900,17.5355, 26 Oct 2015, 03:29:34
032930,17.5348, 26 Oct 2015, 03:30:04
033000,17.5327, 26 Oct 2015, 03:30:34
033030,17.5288, 26 Oct 2015, 03:31:03
033100,17.5178, 26 Oct 2015, 03:31:34
033130,17.4991, 26 Oct 2015, 03:32:04
033200,17.4747, 26 Oct 2015, 03:32:34
033230,17.4495, 26 Oct 2015, 03:33:03
033300,17.4275, 26 Oct 2015, 03:33:34
033330,17.4086, 26 Oct 2015, 03:34:04
033400,17.3972, 26 Oct 2015, 03:34:34
033430,17.3866, 26 Oct 2015, 03:35:03
033500,17.3755, 26 Oct 2015, 03:35:33
033530,17.367, 26 Oct 2015, 03:36:05
033600,17.3622, 26 Oct 2015, 03:36:34
033630,17.3614, 26 Oct 2015, 03:37:04
033700,17.3699, 26 Oct 2015, 03:37:34
033730,17.3849, 26 Oct 2015, 03:38:05
033800,17.3977, 26 Oct 2015, 03:38:35
033830,17.4033, 26 Oct 2015, 03:39:04
033900,17.4056, 26 Oct 2015, 03:39:34
033930,17.4061, 26 Oct 2015, 03:40:05
034000,17.4059, 26 Oct 2015, 03:40:35
034030,17.405, 26 Oct 2015, 03:41:04
034100,17.4022, 26 Oct 2015, 03:41:34
034130,17.3982, 26 Oct 2015, 03:42:05
034200,17.3925, 26 Oct 2015, 03:42:35
034230,17.3843, 26 Oct 2015, 03:43:04
034300,17.3748, 26 Oct 2015, 03:43:34
034330,17.3644, 26 Oct 2015, 03:44:04
034400,17.3535, 26 Oct 2015, 03:44:35
034500,17.3339, 26 Oct 2015, 03:45:34
034530,17.3237, 26 Oct 2015, 03:46:04
034600,17.3129, 26 Oct 2015, 03:46:35
034630,17.3049, 26 Oct 2015, 03:47:04
034700,17.2979, 26 Oct 2015, 03:47:34
034730,17.294, 26 Oct 2015, 03:48:04
034800,17.2928, 26 Oct 2015, 03:48:35
034830,17.2932, 26 Oct 2015, 03:49:04
034900,17.2943, 26 Oct 2015, 03:49:34
034930,17.2961, 26 Oct 2015, 03:50:04
035000,17.2984, 26 Oct 2015, 03:50:35
035030,17.3004, 26 Oct 2015, 03:51:04
035100,17.3026, 26 Oct 2015, 03:51:34
035130,17.3046, 26 Oct 2015, 03:52:04
035200,17.3073, 26 Oct 2015, 03:52:34
035230,17.3099, 26 Oct 2015, 03:53:05
035300,17.3103, 26 Oct 2015, 03:53:34
035330,17.309, 26 Oct 2015, 03:54:04
035400,17.3042, 26 Oct 2015, 03:54:34
035430,17.2998, 26 Oct 2015, 03:55:05
035500,17.2977, 26 Oct 2015, 03:55:34
035530,17.2973, 26 Oct 2015, 03:56:04
035600,17.2989, 26 Oct 2015, 03:56:34
035630,17.3008, 26 Oct 2015, 03:57:03
035700,17.3022, 26 Oct 2015, 03:57:34
035730,17.3027, 26 Oct 2015, 03:58:04
035800,17.3036, 26 Oct 2015, 03:58:34
035830,17.3039, 26 Oct 2015, 03:59:04
035900,17.3041, 26 Oct 2015, 03:59:34
035930,17.3043, 26 Oct 2015, 04:00:04
040000,17.304, 26 Oct 2015, 04:00:34
040030,17.3033, 26 Oct 2015, 04:01:04
040100,17.3027, 26 Oct 2015, 04:01:33
040130,17.302, 26 Oct 2015, 04:02:04
040200,17.3019, 26 Oct 2015, 04:02:34
040230,17.3039, 26 Oct 2015, 04:03:04
040300,17.3071, 26 Oct 2015, 04:03:34
040330,17.3102, 26 Oct 2015, 04:04:04
040400,17.315, 26 Oct 2015, 04:04:34
040430,17.3203, 26 Oct 2015, 04:05:04
040500,17.3257, 26 Oct 2015, 04:05:34
040530,17.3297, 26 Oct 2015, 04:06:03
040600,17.3325, 26 Oct 2015, 04:06:34
040630,17.3343, 26 Oct 2015, 04:07:04
040700,17.3341, 26 Oct 2015, 04:07:34
040730,17.3332, 26 Oct 2015, 04:08:03
040800,17.3318, 26 Oct 2015, 04:08:33
040830,17.3294, 26 Oct 2015, 04:09:04
040900,17.3272, 26 Oct 2015, 04:09:34
040930,17.3247, 26 Oct 2015, 04:10:04
041000,17.3236, 26 Oct 2015, 04:10:33
041030,17.3243, 26 Oct 2015, 04:11:04
041100,17.3264, 26 Oct 2015, 04:11:34
041130,17.3323, 26 Oct 2015, 04:12:04
041200,17.3411, 26 Oct 2015, 04:12:33
041230,17.3513, 26 Oct 2015, 04:13:04
041300,17.361, 26 Oct 2015, 04:13:34
041330,17.3673, 26 Oct 2015, 04:14:04
041430,17.3717, 26 Oct 2015, 04:15:03
041500,17.3713, 26 Oct 2015, 04:15:34
041530,17.3678, 26 Oct 2015, 04:16:05
041600,17.3623, 26 Oct 2015, 04:16:34
041630,17.3561, 26 Oct 2015, 04:17:04
041700,17.3493, 26 Oct 2015, 04:17:35
041730,17.3403, 26 Oct 2015, 04:18:05
041800,17.3315, 26 Oct 2015, 04:18:34
041830,17.3229, 26 Oct 2015, 04:19:04
041900,17.3152, 26 Oct 2015, 04:19:35
041930,17.3093, 26 Oct 2015, 04:20:05
042030,17.2966, 26 Oct 2015, 04:21:04
042100,17.2925, 26 Oct 2015, 04:21:34
042130,17.2887, 26 Oct 2015, 04:22:05
042200,17.2851, 26 Oct 2015, 04:22:35
042230,17.2821, 26 Oct 2015, 04:23:04
042300,17.2787, 26 Oct 2015, 04:23:34
042330,17.2765, 26 Oct 2015, 04:24:05
042400,17.2745, 26 Oct 2015, 04:24:35
042430,17.274, 26 Oct 2015, 04:25:04
042500,17.2745, 26 Oct 2015, 04:25:34
042530,17.2754, 26 Oct 2015, 04:26:04
042600,17.2763, 26 Oct 2015, 04:26:35
042630,17.2781, 26 Oct 2015, 04:27:04
042700,17.2814, 26 Oct 2015, 04:27:34
042730,17.2867, 26 Oct 2015, 04:28:04
042800,17.2949, 26 Oct 2015, 04:28:35
042830,17.3043, 26 Oct 2015, 04:29:04
042900,17.3115, 26 Oct 2015, 04:29:34
042930,17.3148, 26 Oct 2015, 04:30:04
043000,17.3188, 26 Oct 2015, 04:30:35
043100,17.3302, 26 Oct 2015, 04:31:34
043130,17.3345, 26 Oct 2015, 04:32:04
043200,17.3377, 26 Oct 2015, 04:32:34
043230,17.341, 26 Oct 2015, 04:33:05
043300,17.3443, 26 Oct 2015, 04:33:34
043330,17.3481, 26 Oct 2015, 04:34:04
043400,17.3509, 26 Oct 2015, 04:34:34
043430,17.3535, 26 Oct 2015, 04:35:05
043500,17.3557, 26 Oct 2015, 04:35:34
043530,17.3586, 26 Oct 2015, 04:36:04
043600,17.3617, 26 Oct 2015, 04:36:34
043630,17.3644, 26 Oct 2015, 04:37:03
043700,17.3679, 26 Oct 2015, 04:37:34
043730,17.3705, 26 Oct 2015, 04:38:04
043800,17.3741, 26 Oct 2015, 04:38:34
043830,17.3763, 26 Oct 2015, 04:39:04
043900,17.3775, 26 Oct 2015, 04:39:34
043930,17.3773, 26 Oct 2015, 04:40:04
044000,17.3761, 26 Oct 2015, 04:40:34
044030,17.3747, 26 Oct 2015, 04:41:04
044100,17.3733, 26 Oct 2015, 04:41:34
044130,17.3727, 26 Oct 2015, 04:42:04
044200,17.3704, 26 Oct 2015, 04:42:34
044230,17.3678, 26 Oct 2015, 04:43:04
044300,17.3658, 26 Oct 2015, 04:43:34
044330,17.3761, 26 Oct 2015, 04:44:04
044400,17.3922, 26 Oct 2015, 04:44:34
044430,17.4081, 26 Oct 2015, 04:45:04
044530,17.4362, 26 Oct 2015, 04:46:04
044600,17.4502, 26 Oct 2015, 04:46:34
044630,17.4596, 26 Oct 2015, 04:47:04
044700,17.466, 26 Oct 2015, 04:47:33
044730,17.4671, 26 Oct 2015, 04:48:04
044800,17.4647, 26 Oct 2015, 04:48:34
044830,17.4588, 26 Oct 2015, 04:49:04
044900,17.4532, 26 Oct 2015, 04:49:33
044930,17.447, 26 Oct 2015, 04:50:04
045000,17.439, 26 Oct 2015, 04:50:34
045030,17.4292, 26 Oct 2015, 04:51:04
045100,17.419, 26 Oct 2015, 04:51:33
045130,17.4075, 26 Oct 2015, 04:52:04
045200,17.3971, 26 Oct 2015, 04:52:34
045230,17.3908, 26 Oct 2015, 04:53:04
045300,17.3883, 26 Oct 2015, 04:53:33
045330,17.3886, 26 Oct 2015, 04:54:04
045400,17.391, 26 Oct 2015, 04:54:34
045430,17.3943, 26 Oct 2015, 04:55:04
045530,17.3996, 26 Oct 2015, 04:56:04
045600,17.4005, 26 Oct 2015, 04:56:35
045630,17.4, 26 Oct 2015, 04:57:05
045700,17.399, 26 Oct 2015, 04:57:34
045730,17.3964, 26 Oct 2015, 04:58:04
045800,17.3923, 26 Oct 2015, 04:58:35
045830,17.3872, 26 Oct 2015, 04:59:05
045900,17.3819, 26 Oct 2015, 04:59:34
045930,17.3791, 26 Oct 2015, 05:00:04
050000,17.3785, 26 Oct 2015, 05:00:35
050030,17.3763, 26 Oct 2015, 05:01:05
050100,17.3719, 26 Oct 2015, 05:01:34
050130,17.366, 26 Oct 2015, 05:02:04
050200,17.3583, 26 Oct 2015, 05:02:34
050230,17.3489, 26 Oct 2015, 05:03:05
050300,17.3422, 26 Oct 2015, 05:03:35
050330,17.3376, 26 Oct 2015, 05:04:04
050400,17.334, 26 Oct 2015, 05:04:34
050430,17.3259, 26 Oct 2015, 05:05:05
050500,17.3174, 26 Oct 2015, 05:05:35
050530,17.3078, 26 Oct 2015, 05:06:04
050600,17.2985, 26 Oct 2015, 05:06:34
050630,17.2914, 26 Oct 2015, 05:07:04
050700,17.282, 26 Oct 2015, 05:07:35
050730,17.2709, 26 Oct 2015, 05:08:04
050800,17.2601, 26 Oct 2015, 05:08:34
050830,17.2492, 26 Oct 2015, 05:09:04
050900,17.2394, 26 Oct 2015, 05:09:34
050930,17.2315, 26 Oct 2015, 05:10:05
051000,17.225, 26 Oct 2015, 05:10:34
051030,17.2202, 26 Oct 2015, 05:11:04
051100,17.2157, 26 Oct 2015, 05:11:34
051130,17.208, 26 Oct 2015, 05:12:05
051230,17.1786, 26 Oct 2015, 05:13:04
051300,17.1628, 26 Oct 2015, 05:13:34
051330,17.1453, 26 Oct 2015, 05:14:04
051400,17.1253, 26 Oct 2015, 05:14:35
051430,17.0966, 26 Oct 2015, 05:15:04
051500,17.0621, 26 Oct 2015, 05:15:34
051530,17.0246, 26 Oct 2015, 05:16:04
051600,16.99, 26 Oct 2015, 05:16:34
051630,16.9594, 26 Oct 2015, 05:17:04
051700,16.931, 26 Oct 2015, 05:17:34
051730,16.9107, 26 Oct 2015, 05:18:04
051800,16.9011, 26 Oct 2015, 05:18:34
051830,16.899, 26 Oct 2015, 05:19:04
051900,16.9008, 26 Oct 2015, 05:19:34
051930,16.9055, 26 Oct 2015, 05:20:04
052000,16.9092, 26 Oct 2015, 05:20:34
052030,16.9123, 26 Oct 2015, 05:21:04
052100,16.9153, 26 Oct 2015, 05:21:34
052130,16.916, 26 Oct 2015, 05:22:04
052200,16.9128, 26 Oct 2015, 05:22:34
052230,16.9078, 26 Oct 2015, 05:23:04